Regional Weather Roundup
Issued by NWS

Home | Current Version | Previous Version | Text Only | Print | Product List | Glossary Off
Versions: 1 2 3 4 5 6 7 8 9 10 11 12 13 14 15 16 17 18 19 20 21 22 23 24 25 26 27

000
ASUS45 KSLC 221710
RWRUT

UTAH REGIONAL WEATHER ROUNDUP
NATIONAL WEATHER SERVICE SALT LAKE CITY UT
1000 AM MST WED FEB 22 2017

UTZ001>011-023>025-221800-

NORTHERN UTAH

CITY           SKY/WX    TMP DP  RH WIND       PRES   REMARKS
BRIGHAM CITY     N/A     38  32  77 CALM      29.99S
DUGWAY         CLOUDY    36  35  95 CALM      29.97F
HILL AFB       PTSUNNY   36  32  85 E5        29.96F WCI  32
LOGAN          NOT AVBL
OGDEN          CLOUDY    38  33  82 SE5       29.97F WCI  34
SALT LAKE CITY CLOUDY    38  34  85 SE8       29.97F WCI  32
TOOELE VALLEY  CLOUDY    36  34  93 S16G22    29.97S WCI  26
WENDOVER       CLOUDY    39  28  65 S5        29.97F
HEBER CITY     LGT SNOW  34  30  86 CALM      29.96S
WEST JORDAN    CLOUDY    38  38 100 S12       29.97F WCI  30

$$

UTZ011>015-024>027-221800-

CENTRAL/NORTHEAST UTAH

CITY           SKY/WX    TMP DP  RH WIND       PRES   REMARKS
PROVO AIRPORT  LGT SNOW  34  32  93 SE6       30.00F VSB 1   WCI  29
DELTA          CLOUDY    36  34  93 NE8       29.97F WCI  29
PRICE          MOSUNNY   43  31  62 E6        29.91F
RICHFIELD      PTSUNNY   50  28  43 SW9       29.93F
ROOSEVELT      CLOUDY    41  32  70 W15       29.95F
VERNAL         CLOUDY    36  33  89 NE6       29.95F WCI  31

$$

UTZ013>016-019>022-027-221800-

SOUTHERN UTAH

CITY           SKY/WX    TMP DP  RH WIND       PRES   REMARKS
BRYCE CANYON   SUNNY     38  24  57 S12       30.00F WCI  30
CEDAR CITY     SUNNY     49  28  44 SW20G29   29.92F
MILFORD        PTSUNNY   39  33  79 N12       29.95F WCI  32
ST GEORGE      CLOUDY    55  43  63 NW6       29.95F
HANKSVILLE     SUNNY     55  30  38 SW18G25   29.94F
KANAB          SUNNY     54  36  50 SW13      30.02F
BLANDING       MOSUNNY   50  39  66 S9        30.10F

$$

REGIONAL REPORTS     COLORADO/ARIZONA

CITY           SKY/WX    TMP DP  RH WIND       PRES   REMARKS
CRAIG, CO      CLOUDY    34  28  79 CALM      29.97F
GRAND JUNCTION PTSUNNY   54  34  46 VRB3      29.92F
RIFLE, CO      CLOUDY    53  29  39 MISG      29.92F
MONTROSE, CO   CLOUDY    50  30  46 NW6       29.98F
CORTEZ, CO     CLOUDY    51  37  58 W3        30.05F
COLORADO CITY    N/A     54  36  50 CALM      30.01F
PAGE, AZ       MOSUNNY   53  36  52 CALM      29.96F
GRAND CANYON   PTSUNNY   43  39  86 S13       30.09F
KINGMAN, AZ    SUNNY     57  38  48 N5        30.01F
FLAGSTAFF, AZ  CLOUDY    44  39  82 SW18G24   30.13F

$$

REGIONAL REPORTS    NEVADA/IDAHO/WYOMING

CITY           SKY/WX    TMP DP  RH WIND       PRES   REMARKS
LAS VEGAS, NV  MOSUNNY   58  29  33 S20G30    29.93R
ELY, NY        MOSUNNY   25  23  92 S6        29.95F WCI  18
ELKO, NV       CLOUDY    31  26  82 CALM      29.94F
POCATELLO, ID  MOSUNNY   37  24  59 SW12      29.98F WCI  29
FORT BRIDGER,  CLOUDY    28  26  91 CALM      29.96S
EVANSTON, WY   CLOUDY    25  22  88 SW5       29.93S WCI  19
ROCK SPRINGS,  CLOUDY    28  23  81 S5        29.95S WCI  23
KEMMERER, WY     N/A     30  21  69 NW5       29.92F WCI  25

$$




USA.gov is the U.S. government's official web portal to all federal, state and local government web resources and services.